Wind_Speed
6 5 5 7 10 12 16 17 19 22 23 23 23 24 23 22 22 21 22 21 21 21 21 22 24 26 30 35 36 33 25 20 22 20 18 16 13 12 12 13 13 13 11 11 11 10 11 14 14 16 18 20 23 21 24 26 28 29 24 25 28 28 26 23 23 22 19 16 16 21 24 26 25 25 27 24 22 22 23 24 20 17 17 14 11 8 8 9
6 4 4 6 9 12 15 17 19 21 22 22 23 23 21 21 21 20 20 20 20 20 21 23 25 26 30 34 35 35 25 18 22 21 18 16 14 12 10 10 10 9 9 9 9 9 11 13 14 16 18 19 21 20 23 26 28 28 24 26 28 27 23 18 18 18 18 14 15 21 22 25 26 25 27 25 24 25 24 23 21 21 20 15 11 9 9 10
6 4 3 5 8 11 15 16 18 20 20 20 22 22 21 21 20 19 19 19 19 19 21 23 24 26 30 32 33 34 25 19 24 21 18 16 12 11 7 7 6 7 8 8 8 9 12 14 14 16 18 18 19 20 21 23 27 27 24 26 26 25 21 15 13 14 14 12 14 22 23 22 25 26 26 27 26 26 26 27 26 22 19 14 11 11 10 11
6 4 3 4 7 10 14 16 17 19 18 19 21 21 20 21 20 19 18 18 19 19 22 23 24 26 28 31 31 33 27 22 26 21 18 18 12 10 6 4 4 6 8 8 8 8 11 14 16 17 18 16 17 20 20 22 25 26 25 24 23 22 19 14 12 12 12 12 14 19 20 21 24 27 26 28 29 27 28 29 26 20 15 12 10 11 11 11
6 4 2 3 6 9 13 15 16 18 17 17 20 21 20 21 20 18 18 17 18 19 22 23 24 25 26 29 30 33 29 23 27 23 17 17 12 9 6 3 3 5 6 7 7 8 11 15 18 18 17 16 17 20 20 22 23 23 24 21 19 19 17 11 11 19 20 15 17 17 17 22 24 27 27 27 28 28 28 26 24 18 14 13 11 10 10 11
6 4 2 2 5 8 12 15 15 17 16 16 19 21 20 20 20 18 17 17 17 18 21 22 24 24 24 27 27 31 31 26 30 28 19 16 14 10 5 2 1 3 3 5 6 9 12 15 18 19 17 15 16 19 19 21 22 20 22 22 15 14 16 11 10 20 20 16 19 16 16 23 25 27 26 26 28 29 26 22 21 19 15 15 12 9 9 10
5 4 2 2 5 8 11 14 15 15 16 15 17 20 19 20 19 18 17 16 17 17 19 21 23 24 23 25 25 29 33 29 31 31 23 19 17 12 5 2 2 3 3 4 6 10 13 15 17 17 16 15 15 18 18 19 22 17 18 23 16 11 16 15 14 16 15 17 21 18 18 23 25 26 24 25 30 29 25 21 19 19 16 15 14 11 9 10
5 4 2 2 4 7 11 13 14 14 15 14 15 18 19 20 19 18 17 16 16 16 17 19 21 22 22 24 26 26 27 28 29 29 25 22 19 12 6 3 4 6 6 6 8 11 12 14 15 14 13 13 13 16 18 17 22 18 12 20 18 15 21 19 19 18 15 17 21 22 22 24 25 24 23 24 27 27 24 19 17 17 16 15 15 13 12 13
5 4 2 2 3 6 10 13 14 14 14 14 14 16 18 19 19 18 17 15 15 16 16 17 20 20 20 22 24 23 23 26 28 28 24 24 23 12 7 6 6 8 9 9 9 11 11 12 13 15 13 11 13 15 18 17 20 20 10 15 17 17 23 20 18 18 13 15 19 23 25 28 30 26 22 23 25 25 22 18 17 17 16 16 16 14 14 14
5 4 3 2 3 5 9 12 13 14 14 14 14 14 16 18 18 18 18 16 14 15 15 16 18 18 18 21 23 21 23 26 27 26 22 24 26 13 8 9 7 9 11 10 9 10 12 13 11 14 12 10 14 13 16 16 18 20 12 15 16 15 21 17 17 18 12 14 18 21 23 25 29 26 19 21 26 25 22 19 18 17 16 16 17 16 15 15
5 4 3 3 2 4 8 11 13 14 14 13 13 13 14 16 17 17 18 17 14 14 15 15 17 17 17 19 20 20 22 26 26 26 21 22 26 15 9 9 9 10 10 8 8 10 10 10 9 11 10 10 13 11 15 18 18 19 17 19 17 14 22 19 17 18 13 14 17 19 21 20 23 26 17 16 22 22 21 20 17 16 15 15 17 17 17 16
5 4 3 3 3 4 7 10 13 13 14 14 13 13 13 14 15 16 16 17 15 14 14 15 16 16 17 17 17 18 20 23 24 24 20 20 25 17 9 9 9 9 9 8 8 10 10 10 9 8 8 9 12 12 17 22 20 18 17 18 17 15 22 21 16 16 14 15 17 17 18 19 19 21 18 14 18 18 18 18 15 14 14 16 18 17 17 16
6 4 3 4 3 4 6 9 12 13 14 14 14 13 13 13 13 14 14 15 15 14 14 14 15 16 17 16 15 16 17 20 22 21 19 18 22 20 11 8 9 9 10 10 8 10 10 10 9 8 9 9 13 13 18 24 21 17 15 16 17 15 17 20 16 15 15 14 18 16 11 15 17 17 18 16 17 16 15 14 12 13 15 17 18 16 16 15
6 5 4 4 4 3 5 8 11 12 13 14 14 14 13 12 12 12 12 12 13 14 14 14 14 15 15 15 14 14 15 17 18 18 18 16 19 20 16 11 10 10 10 11 10 10 9 9 8 7 8 10 15 13 15 22 19 14 13 14 17 13 10 15 12 9 11 9 15 16 10 13 17 18 20 18 18 17 16 15 14 16 17 17 17 16 15 14
7 5 4 5 5 3 4 7 10 12 13 14 15 14 13 12 12 12 11 10 10 11 14 14 13 13 14 14 14 13 13 14 16 15 16 15 15 17 17 15 14 13 12 12 10 9 9 8 6 7 10 12 14 10 13 20 15 11 13 12 18 15 7 11 10 2 5 8 12 13 12 14 15 18 19 18 18 16 16 16 16 18 18 17 16 14 14 14
7 6 5 5 5 4 4 6 9 11 12 15 16 15 13 12 12 12 11 10 8 9 11 13 11 10 13 14 13 13 12 13 14 13 13 13 14 14 13 13 14 13 10 9 7 7 8 6 8 10 12 11 10 8 11 13 10 10 13 11 15 16 10 10 8 3 5 11 13 13 14 14 15 18 19 17 17 15 14 15 15 17 18 17 14 14 14 14
7 6 5 6 6 5 4 5 8 9 11 14 16 16 14 12 11 11 12 10 8 7 8 11 11 7 10 14 13 13 12 12 12 11 10 10 11 12 9 9 11 12 8 6 5 7 6 6 10 10 9 8 6 8 11 8 8 8 9 8 12 15 15 13 9 7 9 12 13 14 15 14 16 19 17 17 16 14 13 13 14 15 16 15 13 13 13 13
8 7 6 6 7 7 5 4 6 8 10 13 15 16 15 12 10 11 11 9 6 7 7 10 12 7 8 13 12 11 11 10 10 9 8 7 8 10 9 9 13 15 8 5 6 9 7 8 12 6 6 9 6 9 13 10 11 11 10 11 12 12 15 14 12 12 11 12 12 15 16 13 16 18 15 15 15 13 12 12 12 14 15 14 13 13 13 12
8 7 6 6 7 8 6 5 5 7 9 12 15 16 14 11 9 10 10 7 5 7 7 8 10 8 7 9 9 9 8 9 9 8 8 6 5 7 9 11 18 18 8 7 7 9 7 7 10 5 7 10 6 11 16 10 11 15 11 12 13 11 12 12 14 14 13 13 12 15 16 14 17 19 14 13 13 13 13 12 12 14 14 13 13 14 13 13
8 8 7 6 7 8 7 6 5 6 8 11 14 16 14 10 9 10 9 7 6 5 5 6 7 6 6 7 7 8 8 9 10 9 8 6 5 6 10 11 16 19 10 9 8 8 7 7 7 5 8 8 5 12 16 10 11 15 12 14 16 13 13 14 15 15 15 13 10 9 12 15 19 18 13 12 13 14 14 13 14 14 14 14 14 14 14 14
8 8 7 6 7 8 8 7 5 5 7 9 13 15 14 11 9 9 8 8 8 5 4 6 6 6 5 5 6 7 8 8 9 9 7 6 5 6 10 9 12 18 12 8 7 7 7 6 4 7 9 4 4 12 15 13 15 15 15 18 18 15 16 16 16 18 15 12 11 7 6 11 17 14 13 15 14 14 13 13 14 14 14 14 13 13 14 14
8 8 8 7 7 8 9 8 6 5 6 8 12 14 14 12 8 7 7 8 9 7 5 6 7 7 6 5 7 7 7 6 6 8 7 7 6 5 9 9 9 14 16 10 7 8 7 5 5 9 6 2 9 15 14 16 19 19 19 20 19 18 17 15 16 19 14 12 16 11 6 10 14 12 13 16 15 13 13 13 14 14 14 13 13 13 14 14
8 8 8 7 6 8 9 8 7 5 5 8 11 14 14 11 7 5 6 7 8 7 7 7 7 8 8 9 8 7 5 3 3 6 6 6 5 3 2 3 7 11 16 15 8 7 7 6 9 9 5 8 15 16 14 16 20 21 21 18 19 20 16 14 16 17 14 15 18 15 11 12 14 13 12 13 14 15 15 16 16 15 15 14 14 14 14 14
8 8 8 7 6 7 9 9 8 6 5 7 10 13 14 11 7 4 5 6 6 7 6 7 7 7 9 12 11 8 6 5 3 3 4 3 1 1 1 1 6 10 11 12 9 10 8 8 14 11 9 16 19 17 16 17 18 17 15 15 19 18 14 15 17 17 15 14 14 15 12 12 15 15 14 13 15 16 16 18 17 16 16 15 14 13 13 13
8 9 8 8 6 7 8 9 8 6 4 6 9 12 13 12 8 4 4 4 5 6 6 7 7 7 9 13 14 11 9 9 6 3 2 1 1 1 2 2 5 6 6 7 9 14 11 9 14 11 10 14 16 16 15 16 16 12 10 14 18 17 15 15 15 15 15 11 12 14 8 9 16 17 15 15 16 17 17 17 17 16 15 15 14 12 11 12
8 9 8 8 7 6 8 9 9 6 4 5 8 11 12 11 9 6 3 2 4 5 7 8 6 8 11 11 12 11 9 11 12 4 3 3 2 2 2 2 2 1 4 5 6 10 9 9 9 8 9 10 9 11 13 12 11 8 10 16 16 15 15 14 13 13 11 8 12 14 8 4 9 11 12 14 13 15 16 16 16 16 16 15 14 12 11 10
8 9 8 8 7 7 8 9 9 7 4 4 7 10 11 11 8 6 2 0 3 5 7 8 7 8 11 11 11 10 7 10 14 15 6 2 2 2 2 2 2 1 0 1 4 5 5 6 6 6 6 6 4 6 10 9 7 7 12 15 13 13 13 13 13 12 10 9 13 17 14 6 5 3 5 8 7 8 10 13 15 16 16 15 13 12 11 10
9 9 8 8 8 7 7 8 9 7 4 3 6 9 11 10 7 4 2 1 4 6 7 8 8 9 11 11 13 11 9 10 12 15 13 4 1 1 1 2 2 3 4 3 2 3 4 3 4 3 2 4 3 3 5 6 7 10 13 12 12 12 11 12 12 11 11 11 14 17 14 7 6 5 4 4 4 3 5 8 11 14 15 15 13 12 12 11
10 9 8 7 8 7 7 8 9 7 4 3 5 8 9 9 5 3 1 2 5 6 7 7 8 9 10 10 12 12 11 11 9 10 12 10 7 6 4 3 0 2 3 2 1 2 3 2 3 2 1 3 5 6 6 6 8 12 13 12 13 12 12 11 9 9 10 9 8 10 7 4 7 8 6 5 3 1 3 5 8 12 14 15 15 14 13 11
10 9 8 7 7 7 7 8 9 8 4 3 4 7 7 7 4 1 0 3 5 6 6 8 7 7 8 6 7 11 10 11 10 8 9 10 9 9 8 8 8 6 3 4 5 4 3 2 3 3 3 5 6 6 7 7 9 11 12 12 12 10 9 8 5 6 8 4 5 7 4 2 5 8 8 6 4 2 2 4 6 9 11 14 15 16 15 13
10 9 8 7 7 7 7 8 9 8 5 2 3 5 5 5 4 2 2 2 4 5 6 7 7 7 7 4 4 7 8 10 12 10 8 6 6 7 6 7 8 9 8 7 6 5 4 3 4 4 5 6 6 6 6 7 9 11 10 10 10 9 7 7 5 4 4 4 6 7 7 6 6 9 10 7 5 4 1 5 8 7 8 11 14 16 16 14
10 9 8 7 6 6 6 7 8 9 6 3 2 4 4 3 3 3 3 4 4 5 6 5 6 7 7 5 4 5 5 8 11 10 8 6 5 4 4 4 5 7 8 7 7 7 6 6 6 7 6 5 4 4 6 7 8 8 7 8 8 7 6 5 3 2 3 5 7 6 6 8 11 12 11 9 8 7 4 5 8 8 7 9 14 16 17 16
10 9 7 7 5 5 7 7 8 9 7 4 1 4 3 3 2 3 4 4 4 6 6 4 5 6 6 5 3 4 5 6 9 11 10 9 7 5 4 5 7 7 6 7 8 7 8 7 7 8 5 1 2 5 8 10 10 8 7 7 6 5 6 5 3 3 4 7 8 5 3 7 11 11 11 12 11 9 7 5 4 4 5 7 13 16 16 16
10 9 7 6 5 6 7 7 8 9 7 4 1 2 2 2 1 2 3 5 6 7 6 5 4 5 6 5 3 3 5 5 8 10 9 9 8 6 5 5 6 7 5 5 5 4 6 7 6 7 5 4 7 8 10 14 13 11 11 10 6 3 3 5 4 4 7 9 9 6 4 8 9 8 10 13 14 13 11 8 5 3 4 7 11 14 14 14
10 9 8 6 4 6 8 7 7 8 8 4 1 2 3 2 0 2 3 5 6 7 7 5 4 5 4 3 4 4 3 4 7 8 7 8 9 8 6 4 5 6 3 4 4 4 8 8 6 8 8 8 11 11 10 12 10 8 9 9 7 6 6 8 9 9 11 10 7 6 8 13 13 11 12 13 15 16 14 12 9 7 7 9 11 12 12 11
9 9 7 5 5 7 8 7 6 7 8 5 2 4 3 1 1 1 3 5 6 7 6 4 3 4 3 1 3 5 4 3 6 7 6 7 9 10 7 4 5 6 3 3 2 2 7 8 8 9 8 7 9 10 9 9 8 7 8 7 8 11 9 8 11 10 10 8 6 8 12 15 14 12 12 12 15 17 18 15 13 12 9 9 9 10 10 9
9 8 7 5 5 6 7 6 5 6 7 6 4 5 3 1 1 2 3 4 5 6 6 4 3 3 3 2 2 5 5 4 5 6 6 6 7 9 7 4 5 6 5 4 2 3 7 9 8 8 7 5 6 6 7 8 8 5 6 7 7 7 5 4 7 7 7 7 6 8 11 11 10 11 11 13 16 17 17 15 13 13 12 10 8 8 9 10
9 8 7 5 4 6 7 6 5 6 7 7 6 6 5 3 3 3 2 3 4 5 4 3 3 2 3 3 3 5 6 5 5 6 6 5 6 9 8 4 3 5 7 8 6 4 5 8 8 5 3 3 6 6 4 5 7 5 6 7 4 3 4 4 5 5 6 7 6 9 12 11 11 12 13 15 17 16 16 14 12 11 11 11 10 8 8 9
8 7 6 5 5 6 6 6 5 6 7 6 6 6 6 4 3 3 2 3 3 4 3 2 3 3 3 3 4 5 6 6 6 5 5 5 6 9 10 5 3 3 6 8 5 2 2 5 7 4 2 4 6 6 3 3 5 6 6 5 2 2 3 3 4 5 6 6 6 8 10 10 12 13 13 16 17 15 14 14 13 11 10 9 10 10 9 9
7 6 5 4 4 5 6 6 5 5 6 7 7 7 7 5 3 3 2 2 2 2 2 2 2 3 3 3 3 4 5 5 5 4 5 6 5 8 10 8 5 3 6 8 5 3 3 4 7 5 4 5 4 2 3 3 3 3 3 3 3 4 4 5 6 4 4 6 6 6 8 9 10 10 13 16 16 14 13 13 13 11 9 8 9 10 10 11
6 5 5 4 2 4 4 5 5 6 6 7 9 8 8 7 4 3 2 1 1 1 1 1 2 2 3 3 3 4 4 4 4 3 4 5 6 6 8 8 6 4 6 7 5 4 4 4 6 5 3 5 3 0 3 3 1 1 2 2 3 3 3 5 6 4 4 7 7 7 8 9 7 9 14 15 15 14 13 12 12 10 8 7 8 10 11 11
4 4 5 3 2 3 3 3 6 7 5 6 9 9 9 8 6 4 3 2 1 2 2 1 1 2 3 3 3 4 4 3 3 3 3 4 5 5 6 7 6 5 5 4 3 4 5 4 5 5 5 4 3 4 6 7 5 4 3 3 2 1 2 3 5 7 6 8 10 10 9 7 5 8 13 14 14 13 12 11 11 10 8 7 7 9 11 11
4 4 5 3 3 3 1 2 5 4 4 7 9 9 9 8 6 5 5 3 3 3 2 2 2 3 4 3 3 3 4 3 3 3 2 3 3 4 5 6 6 6 5 3 2 3 4 2 3 6 7 6 6 7 8 9 8 5 5 5 4 3 2 4 5 7 8 9 10 9 7 5 5 8 12 14 14 13 11 10 10 10 9 8 6 6 8 10
5 4 5 5 4 3 2 2 3 2 4 6 6 7 8 8 6 5 4 3 3 3 1 2 3 3 4 4 3 3 4 3 3 3 2 1 2 4 4 5 5 6 6 4 3 4 3 1 1 3 6 6 6 5 5 7 6 4 4 5 6 5 4 4 5 7 8 7 6 7 8 7 6 8 11 13 13 12 11 10 9 10 10 8 7 5 5 7
4 4 5 6 5 4 4 5 4 3 4 3 2 4 6 7 7 6 4 4 3 3 2 2 3 3 3 3 3 4 4 3 3 3 3 2 3 4 3 3 4 4 5 4 3 3 2 1 2 3 0 2 2 2 4 6 4 3 3 4 5 5 4 3 3 5 7 6 4 7 11 11 8 7 10 12 13 12 10 9 9 9 9 8 7 6 5 4
4 4 5 5 5 5 6 6 5 4 4 2 2 4 5 5 7 7 6 5 3 2 2 2 3 3 3 3 4 5 6 6 5 4 4 4 4 5 4 3 2 3 3 3 2 2 3 2 1 3 3 2 2 2 4 4 2 2 3 3 3 3 2 1 2 3 8 9 8 9 13 14 9 6 9 13 13 11 10 9 8 8 8 7 7 7 6 5
4 5 5 4 4 5 6 6 5 5 5 4 3 4 5 5 6 6 6 6 4 3 3 3 3 3 3 5 5 5 7 7 6 6 6 5 6 7 6 5 4 3 2 3 2 2 2 2 2 2 2 2 3 4 4 3 2 2 3 3 1 1 2 3 3 4 6 6 8 10 14 14 9 8 11 13 13 12 10 9 8 7 7 6 6 6 6 5
4 5 5 5 5 5 5 5 5 4 5 5 5 4 6 7 6 5 5 5 5 4 3 3 4 3 4 5 5 4 6 5 5 6 6 6 6 6 6 6 6 5 3 3 3 1 0 2 1 1 2 2 3 4 3 2 2 2 2 2 2 2 2 2 3 5 3 4 11 16 14 11 10 12 14 13 12 12 10 8 7 6 5 5 5 5 4 4
4 5 5 6 6 6 7 6 4 4 5 5 5 5 6 7 6 5 5 5 4 4 3 3 5 5 5 6 4 4 5 5 4 5 6 6 7 6 4 5 5 5 5 6 5 2 1 2 3 3 3 2 3 3 2 2 3 2 1 1 1 2 2 2 3 4 4 8 16 17 14 13 14 15 14 13 12 10 9 7 5 4 3 4 4 3 3 2
4 4 4 5 5 7 7 6 6 6 5 5 5 5 5 6 6 6 6 7 6 5 5 5 6 6 6 6 4 4 6 6 4 5 6 6 6 5 4 5 6 4 3 6 7 3 2 4 4 5 3 2 3 4 3 3 3 2 1 2 3 3 3 3 5 5 5 10 15 13 12 14 15 14 13 12 11 9 8 6 3 2 2 3 3 2 2 1
4 4 4 4 5 6 6 7 7 6 6 6 6 5 5 6 6 6 7 8 8 8 8 7 7 7 7 6 5 6 7 7 6 6 7 7 6 6 5 5 6 5 3 4 6 5 4 5 4 6 4 3 4 4 5 5 4 3 2 4 5 4 4 4 5 5 7 11 12 10 9 11 12 11 10 9 8 7 6 4 2 3 3 2 2 2 2 1
5 4 4 4 6 6 6 7 6 7 8 9 8 7 8 8 7 6 7 8 8 9 9 8 8 6 5 6 7 7 7 7 6 7 7 8 8 7 6 4 5 6 4 5 6 6 6 5 5 6 5 5 6 5 6 6 4 3 3 3 4 4 4 5 5 6 9 10 8 6 7 10 10 9 7 6 6 5 5 4 4 4 4 3 4 4 3 2
Wind_Direction
321 319 341 357 356 351 349 349 349 349 349 351 354 355 356 357 355 351 348 348 349 353 2 12 19 22 20 16 11 7 3 1 355 349 342 331 322 309 292 289 278 264 256 250 242 229 227 220 211 205 202 201 200 203 203 198 195 196 201 207 211 212 213 214 212 214 212 201 201 207 205 201 195 193 198 197 191 190 199 198 187 191 199 197 200 203 197 190
319 317 336 356 355 351 350 349 349 350 350 353 357 358 359 360 356 352 351 351 353 0 11 20 25 26 21 17 13 9 8 6 358 355 348 337 329 323 303 295 282 257 248 242 236 220 217 215 210 204 197 201 200 200 205 199 195 196 201 207 212 211 209 214 215 213 209 206 206 198 196 200 198 198 196 188 183 186 194 196 195 202 199 194 198 195 185 180
316 316 331 353 354 352 350 348 350 350 351 356 1 2 3 3 357 352 353 354 358 7 17 23 27 27 22 17 14 11 11 5 357 358 353 344 331 330 320 297 278 244 237 236 234 218 212 204 203 203 193 196 196 197 203 199 197 196 199 209 212 208 206 212 208 204 202 201 202 197 195 193 194 201 195 184 183 186 193 196 195 194 189 188 189 183 178 176
314 314 321 348 353 351 350 349 349 350 351 358 4 5 6 4 358 354 356 357 2 12 21 26 29 28 22 17 14 11 15 13 2 358 351 348 336 328 326 286 252 233 232 229 228 219 216 201 195 196 190 194 195 196 200 198 198 196 200 210 208 203 208 213 206 208 204 193 195 194 196 191 190 198 196 188 185 187 193 195 188 179 177 180 180 178 175 177
313 311 309 342 351 350 349 348 349 351 352 359 6 7 8 6 358 355 359 0 4 16 25 29 31 29 21 18 14 8 16 21 8 2 353 350 342 327 323 290 231 228 233 224 218 208 210 201 191 188 188 196 198 197 199 198 195 196 203 206 203 204 206 206 208 217 213 201 196 187 194 198 194 197 196 192 190 192 193 194 192 184 180 176 176 181 175 178
313 309 294 333 347 348 348 348 349 351 352 357 5 7 9 6 359 357 1 3 7 19 28 31 33 29 21 20 16 9 16 18 6 5 1 358 357 346 338 332 249 212 218 206 198 190 198 199 191 187 189 196 201 200 199 199 195 199 207 202 202 205 203 204 205 213 209 201 201 196 198 199 202 202 195 193 197 196 185 180 190 191 185 172 173 186 179 180
314 307 280 320 343 346 346 347 349 351 352 354 1 6 9 7 0 359 2 5 10 20 31 35 34 28 23 20 15 12 17 12 3 5 7 9 7 360 3 22 84 130 147 157 172 181 188 192 190 187 190 197 204 203 198 198 197 201 211 204 208 208 200 201 188 190 189 188 198 207 206 201 207 206 194 193 199 201 188 173 179 185 183 169 166 177 178 181
316 305 269 296 336 344 344 346 349 350 352 353 357 3 8 8 4 2 3 6 13 21 30 36 33 27 25 21 19 19 17 10 3 4 10 14 11 8 17 48 106 111 118 129 160 175 176 179 182 184 194 203 202 201 196 196 199 202 209 204 211 213 198 191 181 180 183 185 192 201 206 203 204 199 192 195 194 197 196 186 185 184 177 165 164 174 179 181
317 304 265 267 327 343 342 345 348 349 352 354 356 1 6 9 7 5 4 6 14 21 25 32 31 27 27 23 25 25 16 11 7 3 8 13 12 17 35 55 110 113 121 131 148 158 158 165 180 184 189 203 200 198 193 193 199 197 197 195 201 209 196 189 185 181 185 190 189 197 207 208 203 189 179 187 184 180 187 193 196 190 174 163 166 176 182 183
317 302 261 252 315 339 340 344 348 348 350 353 357 360 4 8 9 8 6 6 14 21 22 27 27 26 26 23 24 24 15 13 10 6 9 11 13 26 55 61 101 110 118 127 130 136 146 161 182 187 184 201 201 192 189 195 198 192 203 194 183 199 197 196 199 188 186 191 191 200 207 210 208 196 172 167 169 170 179 188 191 189 175 166 169 175 182 185
315 301 260 246 297 333 339 343 347 349 349 350 354 357 360 4 7 7 7 8 14 22 21 24 24 22 23 22 21 20 14 13 11 11 14 12 14 28 61 65 93 101 104 115 127 132 140 158 167 179 189 205 196 183 186 196 192 188 209 197 170 188 197 200 206 194 193 192 188 199 202 202 205 206 195 165 163 170 181 185 187 187 178 174 172 174 183 185
315 298 262 244 278 326 336 342 347 350 349 348 349 350 353 356 1 4 5 8 14 24 25 24 23 19 20 20 18 16 14 14 14 15 16 12 15 26 53 61 77 90 100 107 126 130 128 142 143 166 190 189 185 183 189 193 187 181 197 192 171 183 195 202 208 197 202 200 188 193 200 198 193 199 204 186 175 178 183 188 194 190 186 186 176 175 185 187
315 297 263 245 263 316 330 340 345 349 351 350 348 345 344 345 352 358 359 4 12 22 27 26 22 18 18 18 14 12 14 14 16 21 18 11 15 24 39 52 65 81 101 105 117 122 122 139 145 173 184 177 186 190 191 190 186 181 185 184 177 177 189 201 204 202 213 207 189 182 176 188 189 189 193 189 183 179 181 194 206 200 198 193 180 180 187 186
318 297 266 246 253 299 324 337 343 349 352 353 352 346 339 335 341 349 352 357 6 18 23 24 23 19 19 19 13 10 14 15 16 23 24 14 16 24 33 48 66 80 96 104 115 120 127 149 156 176 185 187 190 191 193 188 186 191 186 183 181 172 177 192 190 201 214 198 180 174 158 179 190 190 188 186 184 178 184 201 212 211 205 197 185 184 187 185
319 299 271 248 246 281 315 333 342 348 352 354 355 350 341 331 331 340 345 347 355 11 18 19 21 21 22 21 15 11 14 18 15 21 26 19 17 25 35 47 60 73 91 101 110 126 140 157 162 169 179 179 175 180 192 189 195 197 179 181 186 175 151 170 172 166 205 193 179 168 160 169 179 189 187 181 181 177 183 197 206 210 207 200 188 184 187 187
318 303 276 250 243 263 300 327 339 348 351 353 356 355 348 334 328 332 336 339 345 0 15 17 15 19 24 20 15 14 13 19 18 18 21 18 18 22 30 41 46 53 77 95 104 132 139 151 157 152 156 156 153 170 182 190 213 197 177 174 171 161 132 139 159 122 150 184 182 164 158 159 164 179 180 175 178 173 176 190 199 208 207 198 188 185 190 193
317 306 281 253 242 251 282 316 334 346 350 352 355 356 353 343 333 330 334 340 339 347 10 18 13 12 19 16 14 12 5 12 18 14 14 15 17 15 15 24 28 32 55 85 105 133 129 141 152 140 146 158 160 173 174 191 217 189 166 138 128 137 131 127 144 142 146 169 175 164 158 159 164 172 174 174 174 169 175 186 194 210 208 194 189 190 193 197
316 307 285 258 242 245 265 297 327 343 347 351 355 356 354 349 343 336 341 348 343 352 3 9 12 10 8 8 10 11 1 3 11 10 12 13 11 11 8 8 10 18 49 101 125 142 133 146 162 156 167 174 170 177 182 192 192 176 153 131 125 132 127 126 141 142 145 162 172 168 157 156 165 168 169 170 169 166 177 183 188 208 207 191 190 194 196 198
314 306 290 262 244 243 255 278 316 338 344 349 354 357 358 356 355 349 351 1 359 5 4 2 11 18 20 13 10 12 9 12 18 14 15 18 7 357 359 6 8 16 62 126 138 154 148 150 168 167 165 172 174 185 192 195 179 173 161 145 147 140 124 132 146 141 142 151 165 175 168 167 170 167 167 171 170 169 177 183 188 203 204 193 193 195 196 195
311 305 293 268 247 242 248 267 300 333 343 347 352 359 3 7 13 3 360 13 12 8 13 12 16 25 34 33 21 12 15 23 20 17 24 28 13 341 345 1 8 18 67 134 145 155 150 139 152 150 156 177 196 184 189 192 177 170 157 150 150 143 137 144 146 143 148 144 140 167 180 182 175 170 175 175 171 173 179 186 191 199 201 196 196 194 193 193
311 304 295 274 252 241 244 260 285 324 342 347 354 1 5 8 14 10 10 22 22 15 19 16 11 11 15 20 12 6 21 28 13 12 22 25 19 342 335 352 8 18 46 123 147 140 134 121 140 161 160 194 197 173 186 193 182 168 152 146 144 142 144 149 147 145 154 153 141 164 204 186 174 172 177 176 177 181 182 185 188 193 196 195 195 191 189 194
314 304 297 280 258 242 240 253 275 310 338 349 356 2 5 5 13 18 17 26 27 24 26 19 8 10 6 353 353 4 30 37 8 5 17 30 36 350 329 345 11 26 46 79 117 129 131 113 136 160 154 190 171 161 173 181 172 160 148 141 140 141 138 141 147 143 149 157 149 162 195 182 182 189 185 180 185 185 179 182 186 191 194 193 192 190 192 196
318 304 298 287 264 244 238 246 266 294 332 349 356 3 3 5 17 27 26 32 32 30 37 36 27 24 17 5 5 14 20 15 3 359 11 37 45 25 318 330 9 31 53 61 75 123 136 133 145 158 124 121 149 149 145 151 153 149 144 141 138 138 136 137 143 136 140 152 149 158 174 185 201 210 201 193 193 189 185 187 191 195 196 194 194 195 199 197
320 306 299 292 269 247 238 240 256 282 323 346 357 3 2 4 11 18 30 37 37 35 39 38 31 23 14 14 19 23 7 350 345 333 3 50 94 40 194 260 6 22 51 58 63 86 99 129 140 140 112 111 125 132 131 131 140 148 151 146 135 135 144 145 142 139 144 153 154 159 173 199 209 211 212 207 201 199 198 199 201 203 199 196 200 202 205 199
320 307 300 295 276 250 237 236 248 270 311 342 355 2 2 3 0 357 16 39 45 31 16 14 20 15 12 20 24 28 28 11 351 271 261 106 188 272 321 342 18 30 68 85 77 74 78 116 135 135 119 112 114 123 130 129 137 150 150 140 131 129 138 140 143 146 147 160 171 166 174 214 209 207 214 214 210 209 211 213 213 213 210 206 209 208 205 200
318 308 301 297 282 253 235 233 243 261 299 337 354 0 2 1 357 357 6 58 58 24 4 360 2 11 14 19 20 27 41 23 14 14 238 226 229 258 283 313 319 66 106 103 71 71 80 95 126 146 127 116 121 138 149 143 140 139 127 130 128 122 124 132 147 152 154 179 189 180 179 192 191 200 211 214 219 220 220 222 220 221 220 216 215 209 202 201
316 310 304 298 285 256 235 231 236 251 288 332 352 358 2 360 358 7 347 170 52 14 3 0 354 11 12 9 14 21 29 13 18 27 19 227 222 273 278 313 284 257 223 41 54 88 107 89 111 143 138 142 160 169 171 169 161 138 126 125 125 124 125 136 155 164 170 181 181 188 196 176 134 157 202 204 216 226 226 227 225 224 225 223 219 211 206 204
316 313 309 297 285 261 237 227 230 241 271 325 350 358 3 358 358 23 358 356 39 7 355 1 3 15 16 18 24 26 21 10 15 28 32 57 112 297 277 304 259 245 270 286 32 99 140 126 125 130 194 196 157 123 153 165 158 141 132 127 127 134 135 146 170 178 181 183 173 181 195 176 116 99 105 136 161 201 225 234 230 225 226 227 223 217 213 207
319 316 313 298 283 264 237 222 226 232 252 308 349 1 3 360 4 38 18 28 36 4 351 1 2 10 19 26 27 25 27 24 26 41 50 62 66 64 62 33 40 230 253 222 183 175 165 170 167 156 231 167 116 97 113 142 155 144 134 129 128 133 138 154 183 180 178 187 158 152 167 137 105 94 83 95 102 143 228 233 231 225 221 219 219 218 217 213
324 320 314 299 281 264 239 221 221 224 239 285 353 2 7 16 9 339 19 40 29 7 359 4 359 6 17 19 17 22 29 30 35 49 52 58 65 68 65 57 68 84 113 141 146 157 157 163 179 177 171 139 105 90 101 124 145 141 132 127 123 122 132 149 170 170 172 166 123 126 128 126 114 85 57 51 48 356 241 208 218 228 225 216 212 211 209 210
327 324 318 301 282 265 243 225 220 222 231 263 349 360 15 29 10 338 338 345 350 2 4 0 359 5 15 29 37 29 29 25 31 42 36 29 42 52 53 52 70 91 100 109 116 117 120 140 168 177 161 138 106 87 99 118 133 136 138 139 132 125 132 138 143 173 172 115 117 119 86 59 79 73 47 39 43 25 98 188 196 206 223 218 207 203 200 199
329 327 322 306 287 266 244 226 221 222 226 243 332 9 13 3 7 10 351 321 313 348 356 355 6 6 9 34 44 30 36 27 26 36 42 38 35 33 46 68 93 102 96 102 112 110 105 116 136 139 134 134 125 108 104 111 120 125 142 159 154 143 147 144 135 147 129 119 131 126 90 77 80 68 48 50 56 51 74 161 187 198 222 218 199 195 193 191
327 327 324 310 288 256 239 225 220 221 223 233 291 30 359 311 360 20 357 350 331 337 342 345 7 8 4 19 21 20 41 34 26 35 42 46 47 37 36 63 88 88 87 106 116 118 117 114 114 113 111 115 151 146 130 113 106 104 120 146 156 160 154 140 130 121 127 136 137 132 114 105 91 62 48 57 60 60 72 102 156 195 225 208 191 187 188 189
324 325 323 310 281 245 235 226 219 219 217 214 155 37 319 277 22 15 353 354 339 336 339 332 346 354 351 357 348 8 38 28 23 33 34 33 40 43 36 45 78 86 88 98 93 87 99 106 114 111 106 85 87 108 116 105 98 94 92 89 95 137 148 130 135 140 136 134 138 144 112 99 97 67 61 68 63 64 68 73 90 113 149 168 174 176 182 187
322 323 322 310 275 242 238 230 219 217 212 196 177 265 257 238 41 353 341 342 337 340 335 321 332 336 330 347 344 356 47 36 15 24 34 35 37 42 41 35 69 90 85 65 67 64 70 83 112 115 105 86 77 77 85 92 91 84 73 57 63 96 107 109 113 129 141 129 118 120 99 99 100 80 78 83 73 71 72 74 85 98 125 148 156 161 170 178
320 319 318 308 273 243 244 240 224 219 210 189 203 248 237 186 22 336 335 335 337 345 340 322 320 328 329 348 343 349 12 20 6 10 30 42 36 36 42 45 62 83 77 29 26 57 73 88 107 107 98 78 72 71 76 94 94 72 65 60 78 94 98 106 114 134 150 123 97 109 107 110 104 73 70 94 93 87 80 74 83 95 105 127 141 150 155 159
317 316 314 302 273 244 243 241 229 224 206 188 211 238 221 193 265 300 339 346 348 354 352 330 305 327 343 334 342 351 343 344 5 10 24 39 35 33 37 42 51 69 83 72 67 87 98 105 102 99 101 80 66 67 66 81 89 79 75 80 86 91 92 114 125 143 143 103 90 108 103 104 100 69 65 97 105 100 90 79 82 94 99 106 120 135 143 148
314 313 310 293 262 241 240 240 236 223 203 198 222 229 209 202 249 275 341 3 6 7 356 325 311 324 337 330 334 344 339 344 3 11 22 29 36 37 31 23 42 60 75 81 91 107 105 105 100 104 119 69 55 69 69 62 74 86 87 81 77 93 108 126 127 126 121 109 108 107 93 73 67 60 60 85 97 95 96 96 97 110 118 115 119 127 136 144
312 311 306 288 257 242 239 240 240 224 206 209 228 229 214 211 251 274 339 13 23 17 357 322 315 311 322 332 329 338 350 356 353 1 20 17 30 40 33 33 53 55 67 75 85 87 58 93 103 103 91 65 60 70 87 72 67 73 76 74 61 64 84 103 106 104 116 124 125 119 105 69 54 55 61 85 96 91 93 101 104 121 136 135 137 140 142 146
309 307 298 286 255 241 245 246 241 218 211 220 221 221 217 208 236 272 319 19 43 40 356 342 332 306 308 319 321 339 351 350 348 357 16 17 32 41 37 45 61 60 62 63 59 39 28 78 103 101 74 78 79 67 86 95 79 71 74 92 105 101 100 104 104 104 119 125 125 123 109 76 60 72 83 94 101 97 93 95 95 107 129 145 155 157 157 160
306 303 291 277 235 245 259 254 236 215 217 232 224 220 220 209 214 256 279 333 20 42 4 360 335 306 308 305 301 323 335 341 352 358 12 27 34 29 29 42 60 66 53 41 32 36 42 72 106 117 95 76 71 93 131 135 140 98 95 94 104 114 117 114 120 123 109 115 126 125 106 82 73 97 102 101 102 98 95 93 91 94 111 134 160 170 172 172
295 281 275 263 218 251 263 255 251 235 227 241 232 224 223 217 221 249 255 255 298 313 320 343 334 312 308 294 286 307 320 327 339 340 357 23 23 9 16 37 53 57 43 25 28 49 60 84 107 101 85 77 82 97 112 108 92 84 89 84 87 86 44 70 115 133 125 119 125 121 105 92 95 110 112 109 104 100 97 93 92 93 98 114 142 166 176 179
276 256 257 244 222 243 242 264 274 261 246 251 241 231 226 222 230 249 250 250 274 288 306 326 328 317 295 281 284 302 301 297 313 325 328 352 358 356 16 33 39 40 30 19 37 44 53 86 124 109 101 101 101 96 90 85 80 77 82 85 88 97 87 67 91 130 137 133 136 129 110 113 127 120 120 121 114 111 106 95 92 93 90 96 113 144 171 182
275 258 249 238 232 232 222 246 265 264 265 267 255 242 233 225 229 244 242 233 247 264 287 304 313 316 291 279 283 295 292 291 302 300 283 285 303 311 354 20 25 30 23 15 35 41 38 17 304 148 137 136 136 132 109 89 84 82 89 98 96 98 111 94 97 128 137 136 148 136 117 125 140 130 129 131 125 120 114 102 95 90 82 80 90 111 150 178
276 269 252 244 239 230 228 235 235 248 270 287 285 251 233 226 233 235 224 216 232 257 276 294 314 321 303 290 295 300 297 283 280 287 274 260 276 283 315 10 17 22 16 8 18 24 35 40 331 325 14 131 126 120 103 91 84 83 94 116 114 100 103 116 127 141 141 131 113 111 120 129 134 134 136 138 134 128 120 112 104 96 87 81 81 89 108 141
271 259 250 250 247 238 239 239 235 251 268 292 296 248 220 228 239 228 223 235 249 252 257 290 320 327 326 322 313 303 297 283 269 270 269 263 264 259 261 290 325 345 357 359 4 29 43 50 348 344 1 58 68 76 107 105 103 105 92 110 123 100 90 339 320 125 138 129 100 105 135 137 122 124 145 147 143 136 131 125 117 105 97 94 91 88 89 92
269 249 240 240 237 233 240 240 235 248 260 266 271 236 215 231 245 231 228 242 252 254 270 297 308 315 321 321 316 305 301 297 280 265 261 259 256 252 253 260 269 289 331 360 7 40 37 355 337 7 25 103 129 139 136 115 105 115 94 90 83 45 49 5 11 97 132 128 112 130 146 141 130 143 153 151 146 145 144 139 128 114 107 111 110 100 95 96
271 257 242 230 220 217 230 237 232 239 250 251 249 230 218 228 239 237 234 239 248 258 273 290 285 279 290 311 322 314 305 305 292 276 268 262 256 248 244 252 256 260 270 297 330 348 283 292 293 78 88 144 148 140 133 103 95 99 81 75 41 27 45 27 80 123 116 111 135 144 143 137 145 155 153 150 149 149 149 144 134 120 112 121 123 110 106 109
275 266 250 235 229 229 234 238 235 236 239 241 246 236 223 229 240 243 239 244 255 260 253 266 278 275 280 301 323 323 309 300 284 279 270 260 257 244 232 245 254 263 265 263 276 290 238 250 226 156 130 171 187 174 145 111 106 99 70 76 55 61 68 56 107 125 100 114 133 139 139 140 147 151 150 149 149 150 150 147 138 120 117 132 137 129 128 127
286 274 262 249 243 239 236 232 231 238 236 232 243 244 232 237 247 248 243 245 254 258 249 256 274 278 280 293 306 307 306 300 282 272 264 255 255 246 229 223 229 252 274 260 259 250 222 248 219 166 138 165 196 191 165 128 120 124 128 128 114 100 102 119 129 120 107 122 129 129 136 143 143 145 147 145 146 148 148 143 131 129 154 162 160 163 160 141
293 284 276 263 251 245 242 235 232 242 247 242 244 251 253 254 255 256 256 252 249 254 257 257 266 278 286 289 285 287 300 303 288 268 255 245 242 241 239 224 224 242 267 260 253 232 229 253 221 188 182 157 157 167 147 131 125 120 139 148 136 127 135 144 140 124 112 121 125 122 132 143 145 148 149 146 148 148 144 147 160 175 180 186 200 214 209 197
295 295 290 274 260 254 249 243 237 240 246 249 252 258 264 268 265 263 267 264 252 253 260 262 263 270 280 279 275 279 292 299 293 280 261 248 243 241 246 242 230 233 238 249 250 230 222 222 204 210 207 166 166 166 146 155 168 140 142 166 137 121 126 122 119 125 126 126 128 134 148 154 152 150 150 151 154 153 159 176 187 190 196 210 223 229 233 246
Height
3137 3137 3136 3135 3134 3133 3132 3130 3129 3127 3125 3123 3121 3119 3117 3114 3112 3110 3107 3105 3103 3101 3100 3098 3095 3092 3090 3087 3084 3081 3078 3077 3075 3075 3074 3072 3071 3070 3069 3068 3068 3068 3068 3069 3069 3070 3072 3073 3074 3076 3077 3079 3081 3083 3085 3087 3090 3092 3094 3096 3096 3096 3098 3100 3102 3104 3106 3108 3107 3108 3111 3114 3116 3118 3119 3121 3123 3125 3128 3130 3133 3135 3135 3136 3137 3138 3139 3140
3136 3136 3135 3135 3134 3132 3131 3130 3128 3126 3124 3122 3120 3118 3116 3114 3111 3109 3107 3105 3103 3101 3099 3097 3094 3092 3090 3087 3084 3081 3078 3077 3076 3074 3073 3072 3070 3068 3067 3067 3067 3067 3067 3068 3068 3069 3070 3072 3073 3075 3077 3079 3080 3082 3084 3085 3088 3090 3093 3094 3094 3095 3099 3101 3103 3104 3106 3107 3106 3108 3111 3113 3115 3116 3118 3120 3121 3124 3127 3130 3132 3133 3134 3135 3136 3137 3138 3139
3135 3135 3134 3134 3133 3132 3130 3129 3127 3126 3124 3122 3120 3118 3116 3114 3111 3109 3107 3105 3103 3101 3099 3096 3094 3092 3090 3088 3085 3082 3079 3077 3075 3074 3072 3071 3069 3067 3066 3066 3066 3066 3066 3067 3067 3068 3069 3070 3072 3074 3076 3078 3080 3082 3083 3085 3086 3089 3092 3092 3093 3096 3099 3100 3102 3103 3104 3106 3105 3106 3109 3111 3113 3115 3117 3118 3120 3123 3124 3126 3128 3129 3131 3133 3135 3136 3137 3138
3134 3134 3133 3133 3132 3131 3130 3128 3127 3125 3123 3122 3120 3118 3116 3114 3111 3109 3107 3105 3103 3101 3098 3096 3094 3092 3090 3088 3085 3083 3080 3077 3076 3073 3072 3070 3068 3067 3066 3065 3065 3065 3065 3066 3066 3067 3068 3069 3071 3073 3076 3079 3080 3081 3082 3084 3085 3088 3090 3091 3093 3096 3098 3099 3101 3101 3102 3104 3104 3104 3107 3110 3112 3114 3116 3117 3119 3120 3120 3123 3125 3128 3131 3133 3135 3136 3137 3138
3133 3133 3132 3132 3131 3130 3129 3128 3126 3124 3123 3121 3119 3118 3116 3113 3112 3109 3107 3105 3103 3101 3098 3096 3095 3093 3091 3089 3086 3083 3080 3079 3077 3074 3072 3070 3068 3066 3065 3064 3064 3064 3064 3065 3065 3066 3068 3069 3071 3073 3076 3078 3080 3080 3082 3083 3085 3088 3089 3091 3094 3096 3098 3099 3099 3098 3099 3103 3103 3103 3107 3109 3111 3113 3115 3117 3118 3118 3119 3123 3127 3130 3132 3133 3135 3137 3137 3137
3132 3132 3131 3131 3130 3129 3128 3127 3126 3124 3122 3121 3119 3118 3116 3114 3111 3109 3107 3105 3102 3100 3098 3097 3095 3094 3092 3089 3087 3083 3080 3080 3078 3074 3072 3069 3068 3066 3064 3064 3063 3063 3063 3064 3064 3065 3067 3069 3071 3073 3075 3078 3079 3080 3082 3084 3085 3088 3089 3091 3093 3095 3097 3097 3097 3097 3098 3103 3104 3104 3106 3108 3110 3111 3113 3116 3117 3117 3119 3123 3127 3130 3131 3132 3135 3137 3137 3137
3131 3131 3130 3130 3130 3129 3128 3126 3125 3123 3122 3120 3119 3118 3116 3114 3111 3109 3107 3105 3103 3101 3099 3097 3096 3094 3092 3090 3088 3084 3081 3081 3078 3075 3072 3069 3067 3065 3064 3063 3063 3063 3063 3064 3064 3065 3067 3069 3071 3073 3076 3078 3079 3080 3082 3084 3085 3087 3089 3090 3092 3094 3095 3095 3096 3098 3099 3102 3104 3105 3105 3107 3109 3110 3112 3114 3114 3116 3120 3123 3126 3128 3130 3131 3134 3136 3137 3137
3130 3130 3130 3129 3129 3128 3127 3126 3124 3123 3121 3120 3119 3117 3116 3114 3112 3109 3107 3105 3103 3101 3100 3098 3097 3095 3093 3091 3088 3085 3084 3083 3079 3076 3073 3069 3067 3065 3064 3063 3063 3063 3063 3064 3065 3065 3067 3069 3072 3074 3077 3078 3079 3080 3082 3084 3085 3087 3089 3090 3092 3093 3093 3094 3096 3097 3099 3100 3102 3103 3104 3104 3106 3108 3110 3110 3112 3116 3121 3124 3126 3127 3128 3130 3132 3135 3136 3137
3129 3129 3129 3128 3128 3127 3126 3125 3124 3122 3121 3119 3118 3117 3115 3114 3112 3109 3107 3105 3103 3101 3100 3099 3097 3096 3094 3092 3089 3088 3087 3084 3080 3077 3073 3070 3067 3066 3065 3064 3064 3064 3064 3064 3065 3066 3067 3069 3072 3073 3076 3078 3078 3080 3081 3083 3085 3086 3088 3089 3091 3092 3093 3095 3096 3097 3098 3099 3101 3102 3102 3102 3102 3104 3106 3108 3111 3115 3121 3125 3126 3127 3127 3128 3131 3134 3136 3136
3128 3128 3128 3128 3127 3127 3126 3124 3123 3122 3120 3119 3117 3116 3115 3114 3112 3110 3107 3105 3103 3102 3101 3099 3098 3097 3095 3093 3090 3089 3088 3084 3081 3078 3074 3071 3068 3067 3066 3065 3065 3064 3064 3065 3066 3066 3067 3070 3071 3073 3075 3076 3077 3079 3081 3083 3084 3086 3088 3088 3090 3092 3093 3094 3095 3096 3097 3098 3100 3100 3101 3101 3102 3105 3106 3107 3111 3116 3121 3124 3126 3127 3127 3127 3130 3133 3135 3136
3128 3127 3127 3127 3126 3126 3125 3124 3123 3121 3120 3118 3117 3116 3115 3113 3112 3110 3108 3106 3103 3102 3101 3099 3098 3097 3095 3093 3091 3090 3088 3085 3082 3079 3075 3072 3070 3069 3067 3066 3065 3065 3065 3066 3066 3067 3068 3070 3071 3074 3076 3076 3077 3079 3080 3080 3082 3086 3087 3087 3089 3091 3091 3092 3092 3094 3096 3097 3099 3100 3101 3102 3104 3108 3109 3110 3114 3118 3121 3123 3126 3127 3127 3128 3129 3131 3134 3135
3127 3127 3126 3126 3126 3125 3124 3123 3122 3121 3119 3118 3116 3115 3114 3113 3112 3110 3108 3106 3104 3102 3101 3099 3098 3097 3096 3094 3092 3091 3089 3086 3084 3080 3077 3073 3071 3070 3069 3067 3067 3066 3066 3067 3067 3067 3068 3070 3072 3075 3076 3076 3078 3079 3078 3078 3080 3083 3085 3087 3088 3089 3090 3091 3091 3093 3094 3095 3097 3099 3101 3102 3105 3109 3111 3115 3117 3118 3120 3123 3126 3127 3127 3129 3129 3130 3132 3134
3126 3126 3126 3125 3125 3125 3124 3123 3122 3120 3119 3117 3116 3114 3113 3112 3111 3110 3109 3107 3105 3102 3101 3099 3098 3097 3096 3094 3093 3092 3089 3087 3085 3082 3079 3075 3073 3072 3071 3069 3068 3068 3068 3068 3069 3069 3069 3071 3073 3075 3076 3077 3079 3079 3078 3079 3081 3082 3082 3085 3087 3088 3090 3091 3092 3093 3094 3095 3097 3099 3102 3104 3107 3110 3113 3116 3118 3119 3120 3123 3126 3126 3127 3130 3130 3130 3132 3133
3126 3125 3125 3125 3124 3124 3123 3122 3121 3120 3119 3117 3115 3114 3113 3111 3110 3110 3108 3107 3105 3103 3101 3100 3098 3097 3096 3095 3093 3092 3090 3088 3086 3084 3081 3077 3075 3074 3073 3072 3071 3070 3070 3070 3070 3070 3071 3072 3073 3074 3076 3077 3078 3079 3080 3082 3084 3084 3084 3085 3087 3089 3090 3091 3092 3094 3095 3097 3098 3100 3103 3105 3109 3112 3114 3116 3118 3120 3121 3123 3126 3127 3129 3131 3130 3130 3132 3133
3125 3125 3124 3124 3124 3123 3123 3122 3121 3120 3118 3117 3115 3113 3112 3111 3110 3109 3108 3107 3105 3104 3102 3100 3099 3098 3096 3095 3093 3092 3091 3089 3087 3084 3082 3080 3078 3076 3076 3075 3073 3073 3072 3072 3072 3072 3072 3073 3074 3075 3076 3078 3079 3081 3082 3084 3086 3087 3087 3088 3088 3090 3092 3092 3094 3096 3097 3100 3101 3102 3105 3106 3109 3112 3115 3117 3120 3121 3121 3123 3126 3127 3129 3130 3129 3130 3131 3132
3124 3124 3124 3123 3123 3123 3122 3121 3120 3119 3118 3116 3115 3113 3111 3110 3109 3108 3108 3107 3105 3104 3102 3101 3099 3098 3097 3095 3094 3092 3091 3090 3088 3085 3084 3081 3079 3078 3078 3077 3076 3075 3074 3074 3074 3074 3074 3074 3075 3077 3077 3079 3081 3083 3084 3086 3088 3089 3088 3089 3089 3091 3092 3094 3096 3098 3099 3101 3103 3104 3105 3107 3108 3111 3115 3118 3119 3119 3120 3123 3124 3127 3129 3128 3128 3129 3131 3131
3123 3123 3123 3123 3122 3122 3122 3121 3120 3119 3118 3116 3114 3113 3111 3110 3108 3108 3107 3106 3105 3104 3103 3101 3100 3098 3097 3096 3094 3093 3091 3090 3089 3087 3085 3083 3081 3079 3079 3078 3078 3077 3076 3076 3076 3076 3076 3076 3077 3079 3080 3081 3082 3083 3085 3087 3088 3088 3087 3087 3089 3090 3092 3095 3098 3099 3099 3101 3103 3105 3106 3106 3107 3110 3113 3116 3117 3117 3119 3121 3123 3126 3128 3126 3127 3129 3130 3130
3123 3122 3122 3122 3122 3121 3121 3120 3119 3118 3117 3116 3114 3113 3111 3109 3108 3107 3106 3106 3105 3104 3102 3101 3100 3099 3098 3096 3095 3093 3092 3090 3089 3088 3086 3085 3082 3081 3079 3079 3078 3078 3077 3077 3077 3078 3078 3078 3079 3080 3081 3082 3083 3084 3086 3086 3087 3087 3086 3087 3089 3091 3094 3096 3098 3100 3100 3101 3104 3105 3106 3106 3106 3109 3112 3114 3115 3116 3118 3120 3122 3125 3126 3125 3127 3129 3129 3130
3122 3121 3121 3121 3121 3120 3120 3120 3119 3118 3117 3116 3115 3113 3111 3109 3108 3107 3106 3106 3105 3104 3103 3102 3101 3099 3099 3097 3096 3094 3092 3091 3090 3088 3087 3086 3084 3082 3081 3080 3079 3078 3077 3077 3078 3079 3080 3080 3081 3082 3082 3083 3084 3085 3085 3086 3086 3087 3088 3089 3091 3092 3095 3097 3098 3100 3101 3102 3105 3106 3105 3105 3106 3108 3111 3113 3114 3115 3117 3119 3121 3123 3124 3125 3127 3128 3128 3129
3121 3121 3120 3120 3120 3120 3119 3119 3118 3118 3117 3116 3114 3112 3111 3109 3108 3108 3106 3106 3105 3104 3103 3102 3101 3100 3099 3098 3096 3095 3093 3092 3090 3089 3088 3087 3085 3084 3083 3082 3081 3079 3078 3078 3079 3080 3080 3082 3083 3083 3083 3084 3084 3084 3084 3085 3085 3087 3088 3090 3091 3093 3096 3098 3099 3100 3101 3103 3105 3105 3105 3105 3107 3110 3111 3112 3114 3115 3117 3119 3120 3122 3124 3125 3126 3127 3128 3128
3120 3120 3119 3119 3119 3119 3119 3118 3118 3117 3117 3116 3114 3112 3111 3110 3109 3108 3107 3106 3105 3104 3103 3102 3101 3100 3099 3098 3097 3095 3094 3093 3092 3091 3089 3088 3086 3085 3084 3084 3083 3082 3080 3079 3080 3081 3081 3082 3083 3082 3083 3083 3083 3083 3083 3084 3085 3087 3088 3089 3092 3094 3096 3098 3099 3100 3101 3102 3102 3104 3106 3108 3110 3112 3112 3112 3113 3115 3116 3118 3120 3121 3122 3124 3124 3125 3126 3127
3120 3119 3118 3118 3118 3118 3118 3118 3117 3117 3116 3115 3114 3112 3111 3110 3109 3108 3107 3106 3105 3104 3103 3102 3101 3100 3099 3098 3097 3096 3095 3095 3094 3092 3090 3089 3087 3086 3086 3085 3084 3084 3083 3082 3082 3083 3083 3083 3082 3083 3083 3082 3082 3082 3083 3084 3085 3086 3088 3091 3093 3095 3096 3098 3099 3100 3102 3102 3102 3104 3108 3110 3112 3113 3113 3112 3112 3114 3116 3117 3118 3120 3121 3122 3123 3124 3124 3125
3119 3118 3118 3117 3117 3117 3117 3117 3117 3116 3116 3115 3114 3112 3111 3110 3109 3108 3107 3107 3106 3105 3104 3103 3102 3101 3100 3098 3097 3097 3096 3096 3095 3093 3091 3090 3090 3089 3088 3087 3086 3086 3085 3084 3085 3085 3084 3084 3083 3084 3084 3082 3082 3083 3084 3085 3086 3087 3089 3092 3093 3094 3095 3097 3099 3100 3101 3103 3104 3106 3109 3111 3112 3112 3113 3113 3112 3112 3114 3116 3117 3118 3119 3121 3121 3122 3123 3124
3118 3117 3117 3116 3116 3116 3116 3116 3116 3116 3115 3115 3114 3112 3111 3110 3109 3108 3108 3107 3106 3105 3104 3103 3102 3101 3100 3099 3097 3097 3096 3095 3094 3093 3092 3092 3091 3090 3089 3089 3087 3087 3086 3087 3087 3086 3085 3085 3085 3085 3085 3084 3084 3085 3086 3087 3088 3090 3091 3092 3093 3093 3094 3096 3097 3099 3101 3104 3105 3106 3108 3110 3111 3111 3111 3112 3111 3111 3113 3114 3115 3116 3118 3119 3120 3121 3121 3122
3117 3117 3116 3115 3115 3115 3115 3116 3115 3115 3115 3114 3113 3112 3111 3109 3109 3108 3107 3107 3106 3106 3105 3104 3102 3101 3100 3099 3098 3097 3096 3095 3094 3093 3092 3092 3092 3091 3090 3090 3089 3089 3089 3088 3088 3088 3087 3087 3087 3087 3087 3086 3086 3088 3088 3089 3091 3092 3091 3092 3093 3093 3094 3096 3097 3098 3101 3104 3105 3106 3108 3109 3110 3110 3110 3109 3109 3110 3111 3113 3114 3115 3116 3117 3118 3119 3120 3121
3116 3116 3115 3115 3114 3114 3115 3115 3115 3115 3114 3114 3113 3112 3111 3109 3108 3108 3107 3107 3106 3106 3105 3104 3103 3102 3100 3099 3099 3097 3097 3096 3094 3092 3092 3092 3092 3092 3091 3091 3090 3090 3090 3089 3089 3089 3089 3089 3089 3089 3088 3088 3089 3090 3090 3091 3092 3093 3092 3093 3094 3094 3094 3095 3097 3099 3100 3102 3103 3105 3107 3108 3108 3108 3108 3108 3108 3109 3110 3111 3113 3114 3115 3116 3117 3118 3119 3120
3116 3115 3114 3114 3114 3113 3114 3114 3114 3114 3114 3113 3113 3112 3110 3109 3108 3108 3107 3105 3106 3106 3106 3104 3103 3102 3101 3100 3099 3098 3098 3097 3094 3092 3091 3091 3091 3091 3092 3092 3091 3090 3090 3090 3090 3090 3090 3090 3090 3090 3090 3090 3091 3091 3091 3091 3092 3093 3092 3093 3094 3094 3095 3096 3097 3098 3100 3102 3104 3105 3107 3107 3106 3106 3106 3106 3107 3108 3109 3110 3111 3112 3113 3114 3116 3117 3118 3119
3115 3114 3114 3113 3113 3112 3113 3113 3113 3113 3113 3113 3112 3111 3110 3109 3108 3108 3107 3106 3107 3107 3106 3105 3104 3102 3101 3100 3099 3099 3098 3097 3095 3094 3092 3091 3091 3091 3092 3092 3091 3091 3090 3090 3091 3091 3091 3091 3090 3090 3090 3091 3092 3092 3091 3092 3092 3092 3092 3093 3094 3095 3095 3096 3097 3098 3100 3102 3103 3103 3105 3105 3105 3106 3105 3106 3107 3108 3108 3108 3109 3110 3111 3113 3114 3116 3117 3118
3114 3114 3113 3112 3112 3112 3112 3112 3113 3113 3113 3113 3112 3111 3110 3109 3108 3107 3107 3107 3108 3107 3106 3105 3104 3103 3101 3100 3100 3099 3099 3097 3097 3096 3094 3093 3092 3092 3092 3091 3091 3091 3090 3091 3092 3091 3091 3091 3091 3091 3091 3092 3092 3092 3092 3093 3093 3092 3092 3094 3095 3095 3096 3097 3097 3097 3099 3101 3099 3100 3102 3103 3104 3105 3105 3105 3106 3107 3108 3108 3109 3109 3109 3111 3113 3114 3116 3117
3114 3113 3112 3112 3111 3111 3111 3112 3112 3112 3112 3112 3112 3111 3110 3109 3108 3107 3107 3108 3108 3107 3106 3105 3105 3104 3103 3102 3101 3100 3099 3099 3098 3096 3095 3094 3093 3092 3092 3091 3091 3092 3092 3092 3092 3091 3091 3091 3091 3091 3091 3092 3092 3091 3091 3092 3092 3092 3093 3095 3096 3097 3097 3097 3097 3097 3099 3100 3098 3098 3101 3101 3101 3104 3105 3104 3105 3106 3107 3108 3108 3108 3108 3110 3111 3113 3114 3116
3113 3112 3112 3111 3110 3110 3110 3111 3111 3112 3112 3112 3112 3111 3110 3109 3108 3107 3108 3108 3108 3107 3107 3106 3105 3104 3104 3103 3103 3101 3100 3099 3098 3097 3096 3096 3095 3094 3093 3092 3092 3093 3093 3093 3093 3092 3092 3091 3091 3091 3091 3091 3091 3092 3091 3091 3092 3093 3094 3095 3096 3097 3097 3097 3098 3098 3099 3099 3098 3099 3100 3099 3099 3103 3105 3104 3104 3104 3104 3106 3107 3107 3108 3108 3110 3112 3113 3115
3112 3111 3111 3110 3110 3109 3110 3110 3111 3111 3112 3112 3112 3111 3110 3109 3109 3109 3108 3108 3108 3108 3107 3106 3105 3104 3104 3104 3103 3102 3101 3101 3099 3098 3098 3097 3096 3096 3094 3094 3093 3093 3093 3094 3093 3093 3092 3092 3092 3092 3092 3092 3092 3092 3091 3091 3092 3093 3094 3095 3095 3095 3096 3097 3099 3099 3099 3099 3099 3100 3100 3101 3102 3104 3105 3104 3104 3104 3103 3104 3105 3106 3107 3107 3109 3111 3112 3114
3111 3111 3110 3110 3109 3109 3109 3110 3110 3110 3111 3112 3111 3111 3110 3110 3109 3110 3109 3109 3108 3108 3107 3106 3105 3105 3104 3104 3103 3103 3102 3101 3100 3099 3098 3097 3097 3097 3095 3094 3093 3093 3093 3094 3093 3093 3093 3093 3093 3094 3094 3093 3093 3092 3091 3091 3092 3093 3094 3094 3094 3094 3095 3099 3101 3100 3099 3099 3100 3101 3101 3103 3105 3106 3106 3105 3104 3104 3103 3104 3105 3105 3106 3107 3108 3110 3112 3113
3111 3110 3109 3109 3108 3108 3108 3109 3110 3110 3111 3111 3111 3111 3112 3111 3110 3110 3110 3109 3109 3108 3107 3106 3106 3105 3104 3104 3103 3103 3102 3102 3101 3099 3099 3098 3098 3098 3097 3095 3094 3094 3094 3094 3093 3092 3093 3094 3095 3095 3095 3094 3093 3093 3093 3092 3093 3094 3094 3094 3094 3094 3093 3097 3100 3099 3099 3101 3102 3102 3102 3104 3106 3106 3107 3107 3106 3106 3105 3105 3105 3106 3106 3107 3108 3110 3112 3114
3110 3109 3109 3108 3108 3108 3108 3108 3109 3109 3110 3111 3111 3112 3112 3111 3110 3110 3110 3109 3109 3108 3107 3106 3106 3106 3105 3104 3104 3103 3103 3102 3101 3100 3100 3100 3099 3099 3098 3097 3096 3095 3095 3095 3094 3093 3094 3095 3096 3095 3095 3095 3094 3094 3094 3093 3095 3095 3094 3094 3095 3094 3093 3094 3098 3100 3099 3100 3102 3102 3103 3105 3107 3107 3107 3108 3108 3108 3108 3107 3107 3107 3108 3108 3110 3111 3113 3114
3109 3109 3108 3108 3108 3107 3108 3108 3109 3109 3110 3111 3112 3112 3111 3110 3110 3110 3109 3109 3108 3108 3107 3107 3106 3106 3105 3105 3104 3104 3103 3102 3102 3101 3100 3100 3100 3099 3099 3098 3097 3096 3096 3096 3095 3095 3095 3096 3097 3096 3096 3096 3095 3095 3094 3095 3096 3096 3095 3096 3096 3096 3095 3095 3098 3100 3098 3099 3102 3102 3102 3105 3106 3107 3108 3108 3108 3109 3109 3110 3110 3109 3110 3110 3111 3112 3113 3114
3108 3108 3107 3107 3107 3107 3107 3108 3108 3109 3109 3110 3112 3112 3111 3110 3110 3110 3109 3109 3108 3107 3107 3107 3107 3106 3106 3105 3105 3104 3104 3103 3102 3102 3101 3101 3100 3100 3100 3099 3098 3097 3096 3096 3096 3096 3096 3097 3097 3097 3097 3097 3096 3096 3096 3096 3096 3097 3098 3099 3098 3098 3097 3096 3097 3097 3097 3100 3103 3102 3102 3104 3106 3108 3109 3109 3109 3109 3109 3110 3111 3111 3112 3112 3113 3113 3114 3115
3108 3107 3107 3107 3107 3107 3107 3107 3108 3108 3109 3110 3111 3111 3110 3110 3110 3109 3109 3109 3108 3108 3108 3108 3107 3106 3106 3106 3105 3105 3104 3103 3103 3102 3101 3101 3101 3100 3100 3100 3099 3098 3097 3097 3098 3098 3097 3097 3098 3099 3098 3098 3098 3097 3097 3097 3097 3098 3099 3099 3098 3098 3098 3097 3097 3097 3098 3102 3104 3103 3104 3105 3106 3108 3110 3109 3108 3108 3108 3109 3111 3112 3113 3114 3114 3115 3115 3115
3107 3106 3106 3106 3106 3106 3106 3107 3107 3108 3109 3110 3111 3111 3110 3110 3109 3109 3109 3109 3108 3108 3108 3108 3107 3107 3107 3106 3106 3105 3105 3104 3104 3103 3102 3102 3101 3101 3100 3100 3100 3099 3099 3098 3098 3099 3098 3097 3098 3099 3099 3099 3099 3099 3099 3098 3098 3098 3098 3099 3099 3099 3098 3098 3098 3098 3099 3102 3104 3104 3105 3107 3108 3110 3111 3110 3109 3109 3109 3109 3110 3112 3113 3114 3115 3116 3116 3117
3106 3106 3106 3105 3105 3106 3106 3106 3107 3108 3109 3110 3110 3110 3109 3109 3109 3109 3109 3108 3108 3108 3108 3108 3108 3107 3107 3106 3106 3106 3105 3105 3105 3104 3103 3103 3102 3102 3101 3100 3100 3100 3099 3099 3099 3099 3099 3098 3098 3100 3100 3099 3100 3100 3100 3100 3100 3100 3100 3100 3100 3100 3099 3099 3100 3100 3099 3100 3103 3103 3105 3109 3111 3111 3112 3112 3111 3111 3111 3111 3111 3113 3115 3115 3116 3117 3117 3118
3105 3105 3105 3105 3105 3105 3105 3106 3106 3107 3108 3109 3108 3109 3109 3109 3109 3108 3108 3108 3108 3108 3108 3108 3108 3107 3107 3107 3106 3106 3106 3106 3105 3105 3104 3104 3103 3103 3102 3101 3100 3101 3100 3100 3100 3100 3099 3099 3099 3100 3100 3100 3101 3100 3100 3100 3100 3100 3100 3100 3100 3100 3100 3099 3100 3102 3101 3101 3103 3104 3107 3112 3113 3112 3112 3113 3113 3114 3114 3113 3114 3115 3116 3117 3117 3118 3118 3118
3105 3105 3104 3104 3104 3104 3105 3106 3106 3106 3108 3108 3107 3108 3108 3108 3108 3108 3108 3108 3108 3108 3108 3107 3107 3107 3107 3107 3106 3106 3106 3106 3105 3105 3105 3104 3104 3104 3103 3102 3101 3101 3101 3101 3101 3100 3099 3099 3099 3100 3100 3100 3100 3100 3100 3100 3100 3100 3100 3101 3101 3101 3100 3099 3100 3102 3102 3102 3104 3105 3109 3113 3114 3113 3113 3114 3115 3115 3116 3116 3116 3117 3118 3118 3118 3118 3119 3119
3104 3104 3103 3103 3104 3104 3105 3106 3106 3106 3107 3107 3106 3106 3107 3107 3107 3107 3107 3107 3108 3107 3107 3107 3107 3107 3106 3106 3106 3106 3106 3106 3105 3105 3105 3105 3105 3104 3103 3102 3102 3101 3102 3102 3101 3100 3100 3099 3099 3099 3100 3101 3101 3101 3101 3100 3100 3101 3101 3101 3101 3102 3102 3101 3101 3102 3102 3103 3105 3107 3111 3114 3115 3114 3114 3115 3116 3117 3117 3118 3118 3118 3119 3119 3119 3119 3119 3119
3102 3102 3102 3103 3103 3104 3105 3106 3106 3106 3106 3105 3105 3106 3106 3107 3107 3107 3107 3107 3107 3107 3107 3107 3107 3106 3106 3106 3106 3106 3106 3105 3105 3105 3104 3105 3104 3104 3103 3102 3102 3102 3102 3101 3101 3101 3100 3100 3099 3098 3098 3099 3100 3100 3101 3101 3101 3103 3102 3102 3102 3103 3103 3103 3103 3102 3103 3104 3104 3105 3110 3114 3115 3115 3115 3116 3116 3117 3118 3119 3119 3120 3120 3120 3120 3120 3120 3120
3101 3102 3101 3102 3102 3103 3104 3104 3105 3105 3105 3104 3105 3105 3106 3106 3106 3106 3106 3106 3106 3106 3106 3106 3106 3106 3105 3105 3105 3105 3105 3105 3106 3105 3104 3105 3104 3104 3103 3103 3103 3102 3102 3102 3102 3102 3101 3101 3101 3098 3097 3099 3100 3099 3100 3101 3103 3103 3103 3103 3103 3103 3104 3103 3103 3102 3103 3105 3106 3106 3110 3114 3115 3115 3116 3116 3117 3118 3119 3119 3120 3121 3121 3121 3121 3121 3121 3121
3101 3101 3101 3101 3102 3102 3102 3103 3103 3104 3103 3104 3104 3105 3105 3106 3105 3105 3106 3106 3106 3106 3106 3106 3106 3105 3105 3105 3105 3105 3105 3105 3105 3105 3104 3105 3104 3104 3103 3103 3103 3103 3103 3102 3102 3102 3102 3102 3102 3101 3101 3102 3103 3101 3101 3103 3104 3104 3104 3104 3104 3104 3104 3104 3103 3102 3103 3106 3109 3110 3111 3114 3115 3115 3116 3117 3117 3118 3119 3120 3121 3121 3121 3121 3121 3121 3121 3121
3100 3100 3100 3101 3101 3101 3102 3102 3102 3103 3102 3103 3103 3104 3104 3105 3105 3105 3105 3105 3105 3105 3105 3105 3105 3105 3105 3105 3105 3105 3104 3104 3104 3104 3104 3104 3104 3104 3103 3103 3103 3103 3103 3103 3103 3103 3103 3103 3103 3102 3102 3103 3103 3102 3103 3104 3104 3104 3105 3105 3105 3104 3105 3105 3105 3104 3104 3107 3110 3112 3112 3113 3115 3116 3116 3117 3118 3118 3119 3120 3121 3121 3121 3121 3121 3122 3122 3121
3099 3099 3099 3100 3100 3101 3101 3101 3101 3102 3102 3102 3102 3103 3103 3104 3104 3104 3104 3103 3104 3104 3104 3105 3104 3104 3104 3104 3104 3104 3104 3104 3103 3103 3103 3103 3103 3103 3103 3103 3103 3103 3103 3103 3103 3103 3103 3104 3103 3103 3103 3103 3103 3104 3104 3104 3104 3105 3105 3105 3105 3105 3105 3106 3106 3106 3106 3107 3109 3111 3113 3114 3115 3115 3116 3117 3118 3119 3119 3120 3121 3121 3121 3121 3122 3122 3122 3122
3098 3098 3098 3099 3099 3100 3100 3100 3101 3101 3101 3101 3101 3101 3102 3102 3102 3103 3103 3103 3103 3103 3104 3104 3104 3104 3103 3103 3103 3104 3104 3103 3103 3103 3102 3102 3102 3102 3102 3103 3103 3104 3104 3103 3103 3103 3104 3104 3104 3104 3104 3104 3104 3104 3104 3105 3105 3105 3106 3106 3106 3106 3106 3106 3106 3107 3107 3107 3109 3111 3112 3113 3114 3116 3117 3117 3118 3119 3120 3120 3121 3121 3121 3121 3122 3122 3122 3122
3097 3097 3097 3098 3098 3099 3099 3099 3100 3100 3100 3100 3101 3101 3101 3101 3101 3102 3102 3102 3102 3103 3103 3103 3103 3103 3102 3102 3103 3103 3103 3102 3102 3102 3101 3102 3102 3101 3101 3102 3102 3103 3103 3103 3103 3103 3104 3104 3104 3104 3105 3104 3104 3104 3105 3105 3106 3106 3106 3107 3107 3107 3107 3107 3107 3108 3108 3109 3110 3111 3112 3113 3115 3116 3117 3117 3118 3119 3119 3120 3121 3121 3121 3121 3121 3122 3122 3121
3096 3096 3097 3097 3098 3098 3098 3098 3099 3099 3099 3099 3100 3100 3100 3100 3101 3101 3101 3101 3101 3102 3102 3102 3102 3102 3102 3101 3101 3102 3101 3101 3101 3101 3101 3101 3101 3101 3100 3101 3101 3102 3103 3103 3102 3103 3103 3103 3103 3104 3104 3105 3105 3105 3105 3106 3106 3106 3107 3107 3107 3107 3107 3107 3108 3109 3110 3111 3112 3114 3114 3114 3115 3116 3117 3117 3118 3118 3119 3120 3120 3120 3121 3121 3121 3121 3121 3121
3095 3096 3096 3096 3097 3097 3097 3097 3098 3099 3099 3099 3099 3099 3100 3100 3100 3100 3100 3100 3100 3101 3101 3101 3101 3101 3101 3101 3101 3101 3101 3100 3100 3100 3100 3100 3100 3100 3100 3100 3100 3101 3102 3102 3102 3102 3102 3103 3103 3103 3103 3104 3105 3105 3105 3106 3106 3106 3107 3107 3107 3108 3109 3108 3108 3109 3110 3112 3114 3115 3115 3115 3115 3116 3117 3117 3118 3118 3119 3119 3119 3120 3120 3120 3120 3120 3120 3120